Overview Statistics Trail Chart Weather Telemetry Raw packets
 

This is the latest recevied weather packets stored in our database for station/object WE1C. If no packets are shown the sender has not sent any weather packets the latest 10 day(s).

<< 12 13 14 15 16 17 18 >>
Time Temp. Humidity Pressure Rain* Wind** Luminosity Snow
1788526841 20° C 98% 1039.3 hPa 0 mm - 599 W/m² -
1788526538 19.44° C 99% 1039.5 hPa 0 mm - 62 W/m² -
1788526232 19.44° C 99% 1039.5 hPa 0 mm - 858 W/m² -
1788525928 18.89° C 99% 1039.5 hPa 0 mm - 612 W/m² -
1788525623 18.89° C 99% 1039.5 hPa 0 mm - 62 W/m² -
1788525323 18.89° C 99% 1039.5 hPa 0 mm - 53 W/m² -
1788525019 18.89° C 99% 1039.5 hPa 0 mm - 350 W/m² -
1788524719 18.89° C 99% 1039.6 hPa 0 mm - 49 W/m² -
1788524414 18.33° C 99% 1039.3 hPa 0 mm - 380 W/m² -
1788524109 18.89° C 99% 1039.6 hPa 0 mm - 45 W/m² -
1788523805 18.33° C 99% 1039.4 hPa 0 mm - 43 W/m² -
1788523501 17.78° C 99% 1039.4 hPa 0 mm - 49 W/m² -
1788523195 17.78° C 99% 1039.3 hPa 0 mm - 40 W/m² -
1788522891 17.78° C 99% 1039.3 hPa 0 mm - 39 W/m² -
1788522591 17.78° C 99% 1039.3 hPa 0 mm - 37 W/m² -
1788522286 17.78° C 99% 1039.2 hPa 0 mm - 35 W/m² -
1788521981 17.78° C 99% 1039 hPa 0 mm - 34 W/m² -
1788521680 17.22° C 99% 1038.9 hPa 0 mm - 32 W/m² -
1788521380 17.22° C 99% 1039.1 hPa 0 mm - 32 W/m² -
1788521076 17.22° C 99% 1039 hPa 0 mm - 31 W/m² -
1788520772 17.22° C 99% 1039 hPa 0 mm - 29 W/m² -
1788520467 17.22° C 99% 1038.8 hPa 0 mm - 29 W/m² -
1788520163 17.22° C 99% 1039.2 hPa 0 mm - 26 W/m² -
1788519861 17.22° C 99% 1039.1 hPa 0 mm - 25 W/m² -
1788519557 16.67° C 99% 1039.2 hPa 0 mm - 19 W/m² -

* Rain latest hour (hover to see other rain measurements)
** Current wind speed in m/s (hover to see current wind gust speed)